Location: Rounton
(54.4000°N, 1.3500°W)
Time: 06:18:40
(UTC+01:00)

deb Agena D - Pass Details

Date: 16 June 2023
Orbit: 996 x 1023 km, 100.1° (Epoch: 29 September)

Event Time Altitude Azimuth Distance (km) Brightness Sun altitude
Exits shadow 02:23:53 12° 211° (SSW) 2,588 ? -10.5°
Maximum altitude 02:28:38 30° 267° (W) 1,729 ? -10.3°
Drops below altitude 10° 02:34:00 10° 326° (NNW) 2,777 ? -10.0°
Sets 02:36:51 0° 338° (NNW) 3,731 ? -9.8°
